Weather History for Denison, IA

Change the Weather History Date:

Tuesday, April 2, 2013

  Actual Average Record
Temperature  
Mean Temperature 32 °F -  
Max Temperature 46 °F 51 °F 91 °F (2012)
Min Temperature 17 °F 33 °F 17 °F (2013)
Degree Days  
Heating Degree Days 34    
Moisture  
Dew Point 19 °F    
Average Humidity 63    
Maximum Humidity 93    
Minimum Humidity 31    
Precipitation  
Precipitation 0.00 in - - ()
Sea Level Pressure  
Sea Level Pressure 30.29 in    
Wind  
Wind Speed 3 mph (ENE)    
Max Wind Speed 12 mph    
Max Gust Speed 13 mph    
Visibility 10 miles    
Events      
Averages and records for this station are not official NWS values.
T = Trace of Precipitation, MM = Missing Value Source: NWS Daily Summary

Daily Weather History Graph

Daily Weather History Graph

Search for Another Location

Airport:

Trip Planner

Search our weather history database for the weather conditions in past years. The results will help you decide how hot, cold, wet, or windy it might be!

Date:

Astronomy

Apr. 02, 2013 Rise Set
Actual Time 7:02 AM CDT 7:48 PM CDT
Civil Twilight 6:33 AM CDT 8:16 PM CDT
Nautical Twilight 6:00 AM CDT 8:50 PM CDT
Astronomical Twilight 5:25 AM CDT 9:25 PM CDT
Moon 1:58 AM CDT (4/2) 11:50 AM CDT (4/2)
Length of Visible Light 13h 42m
Length of Day
12h 46m
Waning Gibbous, 55% of the Moon is Illuminated
Apr 2
Waning Gibbous
Apr 2
Last Quarter
Apr 10
New
Apr 18
First Quarter
Apr 25
Full

Hourly Weather History & Observations

Time (CDT) Temp. Windchill Dew Point Humidity Pressure Visibility Wind Dir Wind Speed Gust Speed Precip Events Conditions
12:15 AM 23.0 °F 17.0 °F 17.6 °F 80% 30.28 in 10.0 mi ESE 4.6 mph - N/A   Clear
12:35 AM 21.2 °F - 17.6 °F 86% 30.29 in 10.0 mi Calm Calm - N/A   Clear
12:55 AM 21.2 °F 16.4 °F 15.8 °F 80% 30.29 in 10.0 mi ESE 3.5 mph - N/A   Clear
1:15 AM 21.2 °F 16.4 °F 17.6 °F 86% 30.28 in 10.0 mi ESE 3.5 mph - N/A   Clear
1:35 AM 21.2 °F - 17.6 °F 86% 30.28 in 10.0 mi Calm Calm - N/A   Clear
1:55 AM 21.2 °F - 17.6 °F 86% 30.28 in 10.0 mi Calm Calm - N/A   Clear
2:15 AM 21.2 °F - 15.8 °F 80% 30.28 in 10.0 mi Calm Calm - N/A   Clear
2:35 AM 19.4 °F - 15.8 °F 86% 30.28 in 10.0 mi Calm Calm - N/A   Clear
2:55 AM 19.4 °F - 15.8 °F 86% 30.28 in 10.0 mi Calm Calm - N/A   Clear
3:15 AM 19.4 °F - 15.8 °F 86% 30.28 in 10.0 mi Calm Calm - N/A   Clear
3:35 AM 19.4 °F - 15.8 °F 86% 30.28 in 10.0 mi Calm Calm - N/A   Clear
3:55 AM 17.6 °F - 15.8 °F 93% 30.28 in 10.0 mi Calm Calm - N/A   Clear
4:15 AM 17.6 °F 12.3 °F 15.8 °F 93% 30.27 in 10.0 mi ESE 3.5 mph - N/A   Clear
4:35 AM 19.4 °F - 15.8 °F 86% 30.28 in 10.0 mi Calm Calm - N/A   Clear
4:55 AM 19.4 °F - 15.8 °F 86% 30.28 in 10.0 mi Calm Calm - N/A   Clear
5:15 AM 17.6 °F - 15.8 °F 93% 30.29 in 10.0 mi Calm Calm - N/A   Clear
5:35 AM 17.6 °F - 15.8 °F 93% 30.29 in 10.0 mi Calm Calm - N/A   Clear
5:55 AM 17.6 °F - 15.8 °F 93% 30.29 in 10.0 mi Calm Calm - N/A   Clear
6:15 AM 17.6 °F - 15.8 °F 93% 30.30 in 10.0 mi Calm Calm - N/A   Clear
6:35 AM 17.6 °F - 15.8 °F 93% 30.30 in 10.0 mi Calm Calm - N/A   Clear
6:55 AM 17.6 °F - 14.0 °F 86% 30.30 in 10.0 mi Calm Calm - N/A   Clear
7:15 AM 17.6 °F - 15.8 °F 93% 30.31 in 10.0 mi Calm Calm - N/A   Clear
7:35 AM 17.6 °F - 15.8 °F 93% 30.31 in 10.0 mi Calm Calm - N/A   Clear
7:55 AM 21.2 °F - 17.6 °F 86% 30.32 in 10.0 mi Calm Calm - N/A   Clear
8:15 AM 23.0 °F - 19.4 °F 86% 30.32 in 10.0 mi Calm Calm - N/A   Clear
8:35 AM 24.8 °F - 21.2 °F 86% 30.32 in 10.0 mi Calm Calm - N/A   Clear
8:55 AM 26.6 °F 22.6 °F 23.0 °F 86% 30.32 in 10.0 mi SW 3.5 mph - N/A   Clear
9:35 AM 30.2 °F - 21.2 °F 69% 30.32 in 10.0 mi Calm Calm - N/A   Clear
9:55 AM 32.0 °F 26.4 °F 23.0 °F 69% 30.32 in 10.0 mi West 5.8 mph - N/A   Clear
10:15 AM 33.8 °F 29.6 °F 23.0 °F 65% 30.32 in 10.0 mi Variable 4.6 mph - N/A   Clear
10:35 AM 37.4 °F 32.1 °F 21.2 °F 52% 30.32 in 10.0 mi WNW 6.9 mph - N/A   Clear
10:55 AM 39.2 °F 34.2 °F 19.4 °F 45% 30.32 in 10.0 mi West 6.9 mph - N/A   Clear
11:15 AM 39.2 °F 34.2 °F 14.0 °F 36% 30.32 in 10.0 mi Variable 6.9 mph - N/A   Clear
11:35 AM 41.0 °F 35.8 °F 12.2 °F 31% 30.32 in 10.0 mi NNW 8.1 mph - N/A   Clear
11:55 AM 41.0 °F 37.1 °F 15.8 °F 36% 30.32 in 10.0 mi Variable 5.8 mph - N/A   Clear
12:15 PM 41.0 °F 37.1 °F 15.8 °F 36% 30.32 in 10.0 mi Variable 5.8 mph - N/A   Clear
12:35 PM 41.0 °F 35.2 °F 17.6 °F 39% 30.31 in 10.0 mi NNW 9.2 mph - N/A   Mostly Cloudy
12:55 PM 42.8 °F 40.1 °F 15.8 °F 34% 30.31 in 10.0 mi Variable 4.6 mph 12.7 mph N/A   Partly Cloudy
1:15 PM 44.6 °F 39.2 °F 17.6 °F 34% 30.30 in 10.0 mi NNW 10.4 mph - N/A   Partly Cloudy
1:35 PM 42.8 °F 38.6 °F 17.6 °F 36% 30.30 in 10.0 mi NE 6.9 mph 12.7 mph N/A   Clear
1:55 PM 44.6 °F 41.4 °F 17.6 °F 34% 30.29 in 10.0 mi NNE 5.8 mph 12.7 mph N/A   Clear
2:15 PM 44.6 °F 42.2 °F 17.6 °F 34% 30.29 in 10.0 mi Variable 4.6 mph - N/A   Partly Cloudy
2:35 PM 44.6 °F 43.1 °F 17.6 °F 34% 30.28 in 10.0 mi Variable 3.5 mph - N/A   Partly Cloudy
2:55 PM 44.6 °F 40.7 °F 17.6 °F 34% 30.28 in 10.0 mi Variable 6.9 mph - N/A   Clear
3:15 PM 44.6 °F - 17.6 °F 34% 30.28 in 10.0 mi Calm Calm 11.5 mph N/A   Clear
3:35 PM 44.6 °F - 19.4 °F 37% 30.27 in 10.0 mi Calm Calm 11.5 mph N/A   Clear
3:55 PM 46.4 °F 41.5 °F 21.2 °F 37% 30.27 in 10.0 mi NNW 10.4 mph - N/A   Clear
4:15 PM 46.4 °F - 19.4 °F 34% 30.27 in 10.0 mi Calm Calm 11.5 mph N/A   Clear
4:35 PM 46.4 °F 42.4 °F 21.2 °F 37% 30.27 in 10.0 mi NW 8.1 mph - N/A   Partly Cloudy
4:55 PM 46.4 °F 44.3 °F 21.2 °F 37% 30.27 in 10.0 mi Variable 4.6 mph 11.5 mph N/A   Mostly Cloudy
5:15 PM 46.4 °F 41.9 °F 21.2 °F 37% 30.26 in 10.0 mi NNE 9.2 mph - N/A   Partly Cloudy
5:35 PM 46.4 °F 42.4 °F 21.2 °F 37% 30.26 in 10.0 mi NW 8.1 mph - N/A   Clear
5:55 PM 46.4 °F 43.5 °F 21.2 °F 37% 30.26 in 10.0 mi North 5.8 mph - N/A   Partly Cloudy
6:15 PM 46.4 °F 42.9 °F 21.2 °F 37% 30.26 in 10.0 mi NNE 6.9 mph - N/A   Mostly Cloudy
6:35 PM 44.6 °F 40.7 °F 21.2 °F 39% 30.26 in 10.0 mi NNE 6.9 mph - N/A   Mostly Cloudy
6:55 PM 44.6 °F 40.7 °F 21.2 °F 39% 30.27 in 10.0 mi ENE 6.9 mph - N/A   Mostly Cloudy
7:15 PM 42.8 °F 38.0 °F 23.0 °F 46% 30.27 in 10.0 mi ENE 8.1 mph - N/A   Partly Cloudy
7:35 PM 41.0 °F 35.8 °F 21.2 °F 45% 30.26 in 10.0 mi NE 8.1 mph - N/A   Clear
7:55 PM 39.2 °F 34.2 °F 23.0 °F 52% 30.26 in 10.0 mi ENE 6.9 mph - N/A   Clear
8:15 PM 37.4 °F 32.8 °F 23.0 °F 56% 30.27 in 10.0 mi East 5.8 mph - N/A   Scattered Clouds
8:35 PM 37.4 °F 30.8 °F 23.0 °F 56% 30.27 in 10.0 mi East 9.2 mph - N/A   Mostly Cloudy
8:55 PM 35.6 °F 28.0 °F 23.0 °F 60% 30.28 in 10.0 mi East 10.4 mph - N/A   Mostly Cloudy
9:15 PM 35.6 °F 27.5 °F 24.8 °F 65% 30.28 in 10.0 mi East 11.5 mph - N/A   Mostly Cloudy
9:35 PM 33.8 °F 25.3 °F 24.8 °F 70% 30.29 in 10.0 mi East 11.5 mph - N/A   Mostly Cloudy
9:55 PM 33.8 °F 26.4 °F 24.8 °F 70% 30.29 in 10.0 mi East 9.2 mph - N/A   Mostly Cloudy
10:15 PM 33.8 °F 25.8 °F 24.8 °F 70% 30.29 in 10.0 mi East 10.4 mph - N/A   Scattered Clouds
10:35 PM 33.8 °F 27.0 °F 24.8 °F 70% 30.30 in 10.0 mi ESE 8.1 mph - N/A   Partly Cloudy
11:15 PM 32.0 °F 24.2 °F 24.8 °F 75% 30.30 in 10.0 mi East 9.2 mph - N/A   Partly Cloudy
11:35 PM 32.0 °F 24.8 °F 24.8 °F 75% 30.30 in 10.0 mi East 8.1 mph - N/A   Partly Cloudy
11:55 PM 32.0 °F 24.8 °F 24.8 °F 75% 30.31 in 10.0 mi ESE 8.1 mph - N/A   Partly Cloudy